{"data":{"norad_id":62523,"epoch":"2026-05-24T21:02:52.643616Z","epoch_age_seconds":75821,"freshness":"FRESH","line1":"1 62523U 25004N   26144.87699819  .00309347  00000+0  23022-2 0  9999","line2":"2 62523  43.0006 331.2411 0003497 282.7994  77.2483 15.71080516 79193","mean_motion":15.71080516,"eccentricity":0.0003497,"inclination_deg":43.0006,"raan_deg":331.2411,"arg_perigee_deg":282.7994,"mean_anomaly_deg":77.2483,"bstar":0.0023022,"rev_number":7919,"period_min":91.656664654353,"perigee_km":353.45284906366,"apogee_km":358.16256999350003,"semimajor_km":6733.9447095286,"source":"CELESTRAK","updated_at":"2026-05-25T13:38:19.704323Z"}}